This is the latest recevied weather packets stored in our database for station/object N8QQ. If no packets are shown the sender has not sent any weather packets the latest 10 day(s).
| Time | Temp. | Humidity | Pressure | Rain* | Wind** | Luminosity | Snow |
|---|---|---|---|---|---|---|---|
| 1777911025 | 20° C | 64% | 1004.4 hPa | 0 mm | - | - | - |
| 1777909830 | 20° C | 64% | 1004.2 hPa | 0 mm | - | - | - |
| 1777908658 | 19.44° C | 64% | 1004.5 hPa | 0 mm | - | - | - |
| 1777906847 | 18.89° C | 67% | 1004.3 hPa | 0 mm | - | - | - |
| 1777903221 | 18.33° C | 64% | 1004.6 hPa | 0 mm | - | - | - |
| 1777902618 | 17.22° C | 68% | 1004.8 hPa | 0 mm | - | - | - |
| 1777899031 | 13.33° C | 74% | 1004.9 hPa | 0 mm | - | - | - |
| 1777896028 | 12.78° C | 74% | 1004.8 hPa | 0 mm | - | - | - |
| 1777893025 | 11.67° C | 72% | 1004.7 hPa | 0 mm | - | - | - |
| 1777891826 | 11.11° C | 74% | 1004.8 hPa | 0 mm | - | - | - |
| 1777891217 | 10.56° C | 75% | 1004.8 hPa | 0 mm | - | - | - |
| 1777889426 | 10.56° C | 74% | 1005.1 hPa | 0 mm | - | - | - |
| 1777882825 | 10.56° C | 69% | 1005.7 hPa | 0 mm | - | - | - |
| 1777882228 | 10.56° C | 69% | 1005.9 hPa | 0 mm | - | - | - |
| 1777880419 | 10.56° C | 68% | 1006.1 hPa | 0 mm | - | - | - |
| 1777878021 | 11.11° C | 66% | 1006.4 hPa | 0 mm | - | - | - |
| 1777877438 | 11.11° C | 66% | 1006.3 hPa | 0 mm | - | - | - |
| 1777876840 | 11.67° C | 65% | 1006.6 hPa | 0 mm | - | - | - |
| 1777870827 | 10.56° C | 68% | 1007.4 hPa | 0 mm | - | - | - |
| 1777866016 | 10° C | 70% | 1008.1 hPa | 0 mm | - | - | - |
| 1777861223 | 11.11° C | 65% | 1008.4 hPa | 0 mm | - | - | - |
| 1777857047 | 13.89° C | 54% | 1008 hPa | 0 mm | - | - | - |
| 1777856430 | 13.89° C | 50% | 1008 hPa | 0 mm | - | - | - |
| 1777855815 | 13.89° C | 49% | 1007.9 hPa | 0 mm | - | - | - |
| 1777851620 | 15.56° C | 47% | 1008 hPa | 0 mm | - | - | - |
* Rain latest hour (hover to see other rain measurements)
** Current wind speed in m/s (hover to see current wind gust speed)